[[{"header":{"parameterUnit":"m.s-1","parameterCategory":2,"la1":30.2991,"la2":30.254,"lo1":-89.0895,"lo2":-89.0444,"dy":0.0017,"dx":0.0017,"nx":28,"ny":28,"refTime":"2023-04-23T21:00:00:Z","depth":"0","parameterNumber":2,"parameterNumberName":"U-component_of_CURRENTS"},"data":[0,0,0,0,0,0,0,0,0,0,0,0,0,0,0,0,0,0,0,0,0,0,0,0,0,0,0,0,0,0,0,0,0,0,0,0,0,0,0,0,0,0,0,0,0,0,0,0,0,0,0,0,0,0,0,0,0,0,0.1861,0.1862,0,0.1907,0.1907,0.1907,0.19,0.1899,0.1899,0.1898,0.1895,0.1895,0.1896,0,0,0,0,0,0,0,0,0,0,0,0,0,0.1782,0.1783,0.1861,0.1862,0.1863,0.1907,0.1907,0.1908,0.19,0.1899,0.1899,0.1898,0.1895,0.1895,0.1896,0,0,0,0,0,0,0,0,0,0,0,0,0,0.1818,0.1784,0.1861,0.1867,0.1868,0.1907,0.1907,0.1908,0.19,0.1899,0.1898,0.1898,0.1895,0.1895,0.1896,0.1914,0,0,0.1897,0.1898,0,0,0,0,0,0,0,0,0.1816,0.182,0.1865,0.1866,0.1868,0.19,0.1879,0.1908,0.19,0.1884,0.1898,0.1897,0.1895,0.1895,0.1901,0.1913,0.1913,0.1897,0.1898,0.1898,0.1898,0,0,0,0,0,0,0,0.1813,0.1818,0.1875,0.1866,0.1868,0.1873,0.1877,0.1884,0.1889,0.1885,0.1886,0.1897,0.1895,0.1901,0.1901,0.1913,0.1897,0.1898,0.1898,0.1898,0.195,0.1951,0,0,0,0,0,0,0.1815,0.1816,0.1874,0.1877,0.1843,0.1875,0.1879,0.1887,0.189,0.1892,0.1897,0.1896,0.19,0.19,0.1901,0.1939,0.1898,0.1898,0.1899,0.1949,0.195,0.1951,0,0,0,0,0,0,0.1813,0.1819,0.1872,0.185,0.1858,0.1877,0.1887,0.1889,0.1898,0.1901,0.19,0.1905,0.19,0.19,0.1907,0.1938,0.1899,0.1899,0.1947,0.1949,0.195,0.2005,0,0,0,0,0,0,0.181,0.1818,0.1828,0.1851,0.1859,0.1898,0.1888,0.189,0.1907,0.1906,0.1907,0.1906,0.1899,0.1906,0.1908,0.1938,0.19,0.1946,0.1948,0.195,0.2001,0.2008,0.2013,0,0,0,0,0,0.1807,0.182,0.1828,0.1835,0.187,0.1899,0.1904,0.1913,0.1908,0.1917,0.1913,0.1906,0.192,0.1907,0.1909,0.194,0.1945,0.1948,0.195,0.1999,0.2006,0.2013,0,0,0,0,0,0,0.1785,0.1822,0.183,0.1852,0.1877,0.1899,0.191,0.1918,0.1924,0.192,0.1914,0.1914,0.1934,0.1927,0.1914,0.196,0.1934,0.1937,0.1971,0.1978,0.1984,0.1987,0.19,0,0,0,0,0,0.1789,0.1806,0.1841,0.1856,0.1872,0.1893,0.1907,0.1916,0.1926,0.1928,0.193,0.1934,0.1947,0.1952,0.1958,0.1981,0.1997,0.2003,0.2009,0.2014,0.2018,0.2063,0.2074,0.1959,0.1959,0.1959,0,0,0.1781,0.1805,0.1814,0.1853,0.1871,0.1897,0.1898,0.1922,0.1944,0.1927,0.1949,0.1953,0.1956,0.1983,0.1992,0.198,0.206,0.2017,0.2021,0.2022,0.2067,0.2078,0.2088,0.196,0.196,0.196,0,0,0.1777,0.1801,0.1816,0.1842,0.188,0.1901,0.191,0.1941,0.1955,0.198,0.1977,0.2,0.2011,0.2029,0.2036,0.2079,0.2088,0.2082,0.2117,0.2162,0.2172,0.2181,0.2236,0.225,0.2086,0.2086,0.2087,0,0.1771,0.1799,0.1824,0.185,0.1876,0.1903,0.193,0.1953,0.1981,0.2,0.199,0.2034,0.2038,0.2082,0.2097,0.2095,0.212,0.2091,0.2171,0.2179,0.2188,0.2242,0.2256,0.2089,0.2089,0.2089,0.2088,0,0.1781,0.181,0.1822,0.1866,0.1893,0.1923,0.1963,0.1991,0.2011,0.2036,0.2082,0.2094,0.2119,0.2134,0.2128,0.2193,0.2195,0.2173,0.2154,0.2203,0.2257,0.2271,0.2093,0.2092,0.2092,0.2091,0,0,0.1755,0.182,0.1823,0.1855,0.191,0.1936,0.1978,0.2033,0.2065,0.2098,0.2143,0.2179,0.2189,0.2199,0.2206,0.2249,0.2339,0.2238,0.2239,0.2296,0.2452,0.241,0.2421,0.2331,0.2333,0.2334,0.2475,0,0.1761,0.1809,0.1842,0.1894,0.1928,0.1974,0.2012,0.206,0.2099,0.2146,0.2183,0.2221,0.2214,0.2232,0.2276,0.2316,0.2374,0.2303,0.2393,0.2396,0.2355,0.2435,0.2234,0.2338,0.2488,0.2491,0.2492,0,0.1766,0.18,0.1849,0.1926,0.1945,0.198,0.2055,0.2094,0.2163,0.2189,0.2236,0.2258,0.233,0.2308,0.2422,0.2376,0.2423,0.2457,0.2462,0.241,0.2379,0.2309,0.2357,0.225,0.2513,0.2511,0.251,0,0.1739,0.1812,0.1854,0.1879,0.1959,0.1995,0.2042,0.2108,0.215,0.2219,0.2258,0.2323,0.237,0.2432,0.2496,0.2468,0.2619,0.2586,0.2602,0.26,0.244,0.2419,0.2392,0.268,0.2679,0.2679,0.2679,0,0.1739,0.177,0.185,0.1871,0.1925,0.1988,0.2048,0.2096,0.2173,0.2227,0.2279,0.2334,0.2404,0.2487,0.2532,0.2615,0.2654,0.2632,0.2639,0.2455,0.2435,0.234,0.2302,0.2684,0.2683,0.2682,0.2681,0,0.1693,0.1746,0.1796,0.1884,0.1913,0.1949,0.2045,0.2089,0.2167,0.224,0.2267,0.237,0.2474,0.255,0.2662,0.2667,0.265,0.2761,0.2547,0.2525,0.2413,0.2385,0.238,0.2306,0.2803,0.2803,0.2803,0,0.1671,0.1698,0.1784,0.1817,0.1858,0.1923,0.1969,0.2061,0.2111,0.2258,0.2294,0.2423,0.249,0.2645,0.2659,0.2741,0.2663,0.2612,0.2517,0.24,0.2375,0.2336,0.227,0.2341,0.2337,0.2334,0.2331,0,0.1633,0.1668,0.1707,0.177,0.1827,0.1885,0.1965,0.1999,0.2114,0.2183,0.2297,0.2371,0.2502,0.248,0.2571,0.2583,0.2431,0.2551,0.247,0.2054,0.1967,0.1897,0.2276,0.2303,0.2305,0.2307,0.2309,0.231,0.1602,0.1613,0.1676,0.1726,0.1789,0.1847,0.1857,0.1944,0.2009,0.2079,0.2204,0.2249,0.2269,0.2355,0.236,0.2203,0.2295,0.2096,0.2093,0.2084,0.1931,0.2266,0.2268,0.2271,0.2273,0.2275,0.2277,0,0.1564,0.1587,0.1635,0.1687,0.1719,0.178,0.1849,0.1834,0.186,0.1952,0.2007,0.1984,0.1932,0.1941,0.1824,0.1729,0.1662,0.1671,0.1523,0.1498,0.1811,0.1703,0.153,0.153,0.153,0.153,0.153,0.153,0.1549,0.1565,0.1583,0.1608,0.1641,0.1645,0.1659,0.1651,0.1689,0.1663,0.1642,0.1662,0.1651,0.1539,0.1368,0.1325,0.122,0.117,0.1252,0.1397,0.1434,0.1469,0.1357,0.1114,0.1114,0.0814,0.0811,0.0809]},{"header":{"parameterUnit":"m.s-1","parameterCategory":2,"la1":30.2991,"la2":30.254,"lo1":-89.0895,"lo2":-89.0444,"dy":0.0017,"dx":0.0017,"nx":28,"ny":28,"refTime":"2023-04-23T21:00:00:Z","depth":"0","parameterNumber":3,"parameterNumberName":"V-component_of_CURRENTS"},"data":[0,0,0,0,0,0,0,0,0,0,0,0,0,0,0,0,0,0,0,0,0,0,0,0,0,0,0,0,0,0,0,0,0,0,0,0,0,0,0,0,0,0,0,0,0,0,0,0,0,0,0,0,0,0,0,0,0,0,-0.0619,-0.062,0,-0.0719,-0.072,-0.0721,-0.0753,-0.0753,-0.0753,-0.0753,-0.0738,-0.0738,-0.0738,0,0,0,0,0,0,0,0,0,0,0,0,0,-0.0452,-0.0454,-0.0618,-0.062,-0.0622,-0.0719,-0.072,-0.0721,-0.0753,-0.0753,-0.0753,-0.0753,-0.0738,-0.0738,-0.0738,0,0,0,0,0,0,0,0,0,0,0,0,0,-0.0531,-0.0455,-0.0618,-0.0652,-0.0657,-0.0719,-0.072,-0.0721,-0.0753,-0.0753,-0.0753,-0.0752,-0.0738,-0.0738,-0.0738,-0.0737,0,0,-0.0736,-0.0736,0,0,0,0,0,0,0,0,-0.0527,-0.0537,-0.0646,-0.065,-0.0655,-0.0727,-0.0656,-0.0722,-0.0753,-0.0712,-0.0753,-0.0752,-0.0727,-0.0727,-0.0742,-0.0736,-0.0736,-0.0736,-0.0736,-0.0736,-0.0736,0,0,0,0,0,0,0,-0.0521,-0.0533,-0.0654,-0.0648,-0.0654,-0.0662,-0.0673,-0.0669,-0.0713,-0.0716,-0.0719,-0.0737,-0.0728,-0.0743,-0.0742,-0.0736,-0.0736,-0.0736,-0.0735,-0.0735,-0.0753,-0.0753,0,0,0,0,0,0,-0.0518,-0.0528,-0.0651,-0.0658,-0.0594,-0.0666,-0.0678,-0.0701,-0.0716,-0.072,-0.0737,-0.0738,-0.0743,-0.0742,-0.0741,-0.0751,-0.0736,-0.0735,-0.0735,-0.0752,-0.0753,-0.0754,0,0,0,0,0,0,-0.0514,-0.0528,-0.0647,-0.0598,-0.0614,-0.0669,-0.0695,-0.0703,-0.072,-0.0735,-0.0736,-0.0747,-0.0743,-0.0742,-0.0726,-0.075,-0.0735,-0.0735,-0.0751,-0.0752,-0.0753,-0.0764,0,0,0,0,0,0,-0.0509,-0.0526,-0.0534,-0.0598,-0.0617,-0.0685,-0.0696,-0.0705,-0.0734,-0.0736,-0.0743,-0.0742,-0.0743,-0.0726,-0.0725,-0.0749,-0.0734,-0.075,-0.0752,-0.0753,-0.0763,-0.0765,-0.0767,0,0,0,0,0,-0.0503,-0.0512,-0.0533,-0.0548,-0.0628,-0.0686,-0.0696,-0.0732,-0.0734,-0.0745,-0.0736,-0.0742,-0.0736,-0.0725,-0.0724,-0.0749,-0.075,-0.0751,-0.0753,-0.0761,-0.0765,-0.0767,0,0,0,0,0,0,-0.0437,-0.0519,-0.0543,-0.0576,-0.063,-0.0693,-0.0699,-0.0731,-0.0737,-0.0724,-0.0733,-0.0731,-0.0732,-0.0735,-0.0723,-0.076,-0.0751,-0.0753,-0.0759,-0.0761,-0.0764,-0.0734,-0.0734,0,0,0,0,0,-0.043,-0.0457,-0.0539,-0.056,-0.0583,-0.0641,-0.0665,-0.0696,-0.0718,-0.0722,-0.0735,-0.0738,-0.0741,-0.0743,-0.0744,-0.0752,-0.0735,-0.0774,-0.0776,-0.0778,-0.0755,-0.0764,-0.0765,-0.0759,-0.0759,-0.0759,0,0,-0.0409,-0.0456,-0.0471,-0.0548,-0.0581,-0.0609,-0.0653,-0.0688,-0.0706,-0.0715,-0.0722,-0.0739,-0.0742,-0.0754,-0.0758,-0.0757,-0.077,-0.078,-0.0782,-0.0757,-0.0766,-0.0766,-0.0767,-0.076,-0.076,-0.076,0,0,-0.0378,-0.0422,-0.0436,-0.0476,-0.0538,-0.0579,-0.059,-0.0661,-0.0684,-0.07,-0.0715,-0.0735,-0.0745,-0.0763,-0.0767,-0.0781,-0.0778,-0.0804,-0.0795,-0.0806,-0.0806,-0.0806,-0.0774,-0.0771,-0.0811,-0.0811,-0.0811,0,-0.0348,-0.0385,-0.0446,-0.0465,-0.0491,-0.0562,-0.0577,-0.0611,-0.0669,-0.0685,-0.0695,-0.0733,-0.0745,-0.0761,-0.0775,-0.0786,-0.0776,-0.0784,-0.0808,-0.0807,-0.0807,-0.0775,-0.0771,-0.0812,-0.0812,-0.0812,-0.0812,0,-0.0332,-0.0359,-0.0364,-0.0414,-0.0446,-0.0472,-0.0535,-0.0568,-0.0604,-0.0646,-0.068,-0.0708,-0.0729,-0.0762,-0.0766,-0.0791,-0.0779,-0.0805,-0.0796,-0.0808,-0.0773,-0.0769,-0.0813,-0.0813,-0.0813,-0.0812,0,0,-0.0277,-0.0345,-0.0344,-0.0366,-0.0425,-0.0456,-0.0475,-0.0533,-0.0549,-0.0609,-0.0625,-0.0671,-0.0705,-0.0712,-0.0752,-0.0775,-0.0773,-0.079,-0.0791,-0.0749,-0.0765,-0.073,-0.0722,-0.0811,-0.0811,-0.0811,-0.0737,0,-0.025,-0.0275,-0.0316,-0.0334,-0.0355,-0.0415,-0.0431,-0.0482,-0.0526,-0.0558,-0.061,-0.0631,-0.0682,-0.0698,-0.073,-0.0753,-0.0764,-0.0787,-0.0766,-0.0764,-0.0726,-0.0718,-0.0681,-0.0611,-0.0733,-0.0732,-0.0732,0,-0.0222,-0.0249,-0.026,-0.0316,-0.0329,-0.0346,-0.0393,-0.0416,-0.0467,-0.0499,-0.0537,-0.0572,-0.0602,-0.0649,-0.0682,-0.0695,-0.0721,-0.0747,-0.0746,-0.0701,-0.0723,-0.0623,-0.0599,-0.0727,-0.0726,-0.0726,-0.0727,0,-0.0164,-0.0211,-0.0221,-0.0237,-0.0301,-0.0318,-0.0349,-0.0398,-0.0408,-0.0452,-0.0451,-0.0508,-0.0507,-0.0563,-0.0605,-0.0645,-0.0624,-0.0687,-0.0676,-0.0672,-0.0626,-0.0619,-0.0712,-0.0706,-0.0706,-0.0706,-0.0706,0,-0.0127,-0.0137,-0.02,-0.0208,-0.0218,-0.0274,-0.0274,-0.0323,-0.0349,-0.0333,-0.041,-0.0391,-0.0488,-0.0492,-0.0559,-0.0573,-0.0581,-0.0648,-0.0652,-0.0628,-0.0622,-0.0719,-0.079,-0.0703,-0.0704,-0.0705,-0.0705,0,-0.006,-0.0101,-0.0116,-0.0177,-0.019,-0.0192,-0.0216,-0.0213,-0.0255,-0.0227,-0.0229,-0.0276,-0.0278,-0.0356,-0.0414,-0.0485,-0.0572,-0.0535,-0.0473,-0.0473,-0.061,-0.068,-0.0694,-0.0762,-0.0516,-0.0515,-0.0514,0,-0.0035,-0.0034,-0.0071,-0.0073,-0.0102,-0.0107,-0.0101,-0.015,-0.0136,-0.0142,-0.0112,-0.0117,-0.0093,-0.015,-0.0265,-0.0343,-0.049,-0.0391,-0.048,-0.059,-0.0673,-0.0714,-0.0775,-0.0414,-0.0412,-0.0411,-0.0409,0,0.0018,0.0013,0.0005,0.0007,0.0007,0.0016,0.0015,0.0044,0.0017,0.0051,0.0102,0.0122,0.0066,0.0009,-0.0118,-0.0197,-0.0468,-0.0364,-0.0508,-0.0612,-0.063,-0.0706,-0.0469,-0.0396,-0.0398,-0.0399,-0.0399,-0.04,0.007,0.0083,0.008,0.0087,0.01,0.0123,0.0146,0.0176,0.0237,0.0273,0.0287,0.033,0.0189,0.0028,-0.0081,-0.0327,-0.0368,-0.0444,-0.0517,-0.0545,-0.0629,-0.0338,-0.0265,-0.0266,-0.0266,-0.0266,-0.0267,0,0.0122,0.0132,0.0147,0.0159,0.0195,0.0173,0.0215,0.0256,0.0359,0.0401,0.046,0.0408,0.0252,0.0026,-0.0281,-0.0466,-0.0555,-0.0592,-0.0676,-0.0735,-0.0494,-0.0513,-0.0455,-0.0455,-0.0454,-0.0454,-0.0454,-0.0454,0.0147,0.0177,0.0184,0.0243,0.0254,0.0284,0.031,0.0387,0.0427,0.0499,0.0502,0.0472,0.0211,-0.0246,-0.0626,-0.07,-0.0902,-0.0857,-0.1005,-0.0886,-0.088,-0.0874,-0.0912,-0.0939,-0.0939,-0.1216,-0.1219,-0.1222]}],[{"header":{"parameterUnit":"m.s-1","parameterCategory":2,"la1":30.2991,"la2":30.254,"lo1":-89.0895,"lo2":-89.0444,"dy":0.0017,"dx":0.0017,"nx":28,"ny":28,"refTime":"2023-04-23T21:00:00:Z","depth":"2","parameterNumber":2,"parameterNumberName":"U-component_of_CURRENTS"},"data":[0,0,0,0,0,0,0,0,0,0,0,0,0,0,0,0,0,0,0,0,0,0,0,0,0,0,0,0,0,0,0,0,0,0,0,0,0,0,0,0,0,0,0,0,0,0,0,0,0,0,0,0,0,0,0,0,0,0,0.1787,0.1787,0,0.1799,0.1799,0.1799,0.18,0.18,0.18,0.18,0.1821,0.1822,0.1822,0,0,0,0,0,0,0,0,0,0,0,0,0,0.1752,0.1753,0.1787,0.1787,0.1787,0.1799,0.1799,0.1799,0.18,0.18,0.18,0.18,0.1821,0.1822,0.1822,0,0,0,0,0,0,0,0,0,0,0,0,0,0.1766,0.1753,0.1787,0.1789,0.1789,0.1799,0.1799,0.1799,0.18,0.18,0.18,0.1799,0.1821,0.1822,0.1823,0.1832,0,0,0.1826,0.1826,0,0,0,0,0,0,0,0,0.1765,0.1767,0.1788,0.1789,0.1789,0.1798,0.1795,0.1811,0.18,0.1796,0.18,0.1799,0.1815,0.1816,0.1818,0.1833,0.1834,0.1826,0.1826,0.1827,0.1827,0,0,0,0,0,0,0,0.1764,0.1766,0.1791,0.1789,0.1789,0.1786,0.1787,0.1798,0.1806,0.1796,0.1796,0.1798,0.1815,0.1817,0.1819,0.1835,0.1826,0.1827,0.1827,0.1828,0.1875,0.1876,0,0,0,0,0,0,0.1764,0.1766,0.1791,0.1792,0.1777,0.1786,0.1788,0.1795,0.1806,0.1807,0.1798,0.1798,0.1816,0.1818,0.182,0.1872,0.1827,0.1828,0.1828,0.1874,0.1875,0.1876,0,0,0,0,0,0,0.1763,0.1767,0.179,0.1779,0.1782,0.1787,0.1795,0.1795,0.1824,0.1807,0.1809,0.1829,0.1815,0.1818,0.1841,0.1872,0.1828,0.1829,0.1874,0.1875,0.1876,0.1952,0,0,0,0,0,0,0.1763,0.1766,0.1778,0.1779,0.1782,0.183,0.1795,0.1796,0.1824,0.1825,0.1834,0.1834,0.1816,0.1839,0.1842,0.1872,0.183,0.1873,0.1874,0.1875,0.1949,0.1956,0.1961,0,0,0,0,0,0.1761,0.1774,0.1778,0.1782,0.1796,0.1832,0.1835,0.1837,0.1826,0.1858,0.1844,0.1835,0.1848,0.1841,0.1844,0.1875,0.1872,0.1874,0.1875,0.1946,0.1954,0.1961,0,0,0,0,0,0,0.1758,0.1775,0.178,0.1796,0.183,0.1833,0.1845,0.1857,0.1872,0.186,0.1849,0.1849,0.1879,0.1865,0.1857,0.1889,0.1857,0.1859,0.191,0.1918,0.1924,0.1933,0.1831,0,0,0,0,0,0.1765,0.1781,0.1807,0.1822,0.1836,0.1849,0.1864,0.1871,0.1879,0.1886,0.1885,0.1876,0.1884,0.1892,0.1891,0.1917,0.1932,0.1934,0.1941,0.1946,0.1954,0.201,0.2023,0.1881,0.1881,0.1881,0,0,0.1761,0.1775,0.1782,0.1823,0.1834,0.186,0.1858,0.1886,0.1904,0.1885,0.19,0.1905,0.1895,0.1916,0.1928,0.1912,0.1996,0.1948,0.1953,0.1958,0.2013,0.2028,0.204,0.1882,0.1882,0.1881,0,0,0.1761,0.1782,0.1797,0.183,0.1864,0.1877,0.1898,0.192,0.1931,0.1956,0.194,0.1967,0.197,0.1975,0.1976,0.202,0.203,0.2017,0.2061,0.2116,0.2129,0.2141,0.219,0.2206,0.202,0.202,0.202,0,0.176,0.1784,0.1811,0.1838,0.1859,0.189,0.1917,0.1935,0.1962,0.1978,0.1967,0.1997,0.1997,0.2036,0.2045,0.2038,0.2068,0.2037,0.2128,0.214,0.215,0.2198,0.2214,0.2024,0.2023,0.2023,0.2022,0,0.1772,0.18,0.1812,0.1853,0.1884,0.1916,0.1946,0.198,0.1993,0.201,0.206,0.2065,0.2086,0.2096,0.2084,0.2158,0.2155,0.2135,0.2116,0.217,0.2216,0.2231,0.2029,0.2028,0.2027,0.2026,0,0,0.175,0.1811,0.1815,0.1847,0.1898,0.1928,0.196,0.2014,0.2045,0.2077,0.2125,0.2151,0.2168,0.217,0.2176,0.2227,0.2332,0.2218,0.2219,0.2279,0.2464,0.2371,0.2379,0.2336,0.2339,0.2341,0.2471,0,0.1758,0.1804,0.1833,0.1885,0.1916,0.1961,0.1989,0.2036,0.2075,0.2127,0.2164,0.2203,0.2191,0.2216,0.2268,0.2312,0.2374,0.2299,0.239,0.2393,0.2315,0.2393,0.2124,0.2209,0.2485,0.2488,0.249,0,0.1765,0.1797,0.1841,0.1912,0.1929,0.1966,0.2038,0.207,0.2143,0.2171,0.223,0.2255,0.2335,0.2314,0.2437,0.2393,0.2439,0.2474,0.2479,0.2375,0.2329,0.2196,0.2226,0.2515,0.2513,0.2511,0.251,0,0.174,0.1811,0.1848,0.1872,0.1944,0.1982,0.2025,0.2088,0.2127,0.2212,0.2258,0.2335,0.2387,0.2461,0.2521,0.2495,0.2657,0.2623,0.2589,0.2583,0.236,0.2329,0.2726,0.2726,0.2725,0.2725,0.2725,0,0.1741,0.1773,0.1849,0.1871,0.1919,0.1977,0.2036,0.2085,0.2169,0.2222,0.2285,0.2347,0.2431,0.2518,0.2565,0.2624,0.2693,0.2618,0.2617,0.2377,0.2348,0.2605,0.2589,0.273,0.2729,0.2728,0.2727,0,0.1699,0.1749,0.1797,0.188,0.1908,0.1942,0.2037,0.2083,0.2166,0.2246,0.2279,0.2389,0.2493,0.2572,0.2694,0.267,0.2738,0.2742,0.2451,0.2412,0.262,0.2606,0.2723,0.2721,0.2719,0.2718,0.2717,0,0.1679,0.1703,0.1783,0.1816,0.186,0.1923,0.1963,0.2058,0.2113,0.2262,0.2303,0.2435,0.2491,0.2627,0.2604,0.266,0.2751,0.2447,0.2337,0.2636,0.2624,0.2613,0.2602,0.2085,0.2079,0.2073,0.2069,0,0.1643,0.1674,0.1712,0.1772,0.1829,0.1881,0.1963,0.1999,0.2112,0.218,0.2289,0.2353,0.2446,0.2348,0.2394,0.2395,0.2406,0.2343,0.2753,0.2115,0.2041,0.2026,0.2036,0.2024,0.2028,0.2031,0.2034,0.2036,0.1613,0.1621,0.1682,0.173,0.1791,0.1842,0.1852,0.1936,0.1991,0.2032,0.2158,0.2122,0.2128,0.2028,0.2013,0.1993,0.218,0.2065,0.2079,0.2098,0.1989,0.1914,0.1854,0.1857,0.186,0.1863,0.1865,0,0.1571,0.1595,0.1644,0.1693,0.1724,0.1784,0.1846,0.1819,0.1829,0.1823,0.1847,0.1631,0.1552,0.1605,0.1484,0.1511,0.148,0.1468,0.1386,0.1433,0.1474,0.133,0.1022,0.102,0.1018,0.1016,0,0,0.1555,0.157,0.1586,0.1612,0.1649,0.1648,0.1658,0.1616,0.1575,0.1455,0.1344,0.1362,0.1449,0.1145,0.1157,0.1064,0.1231,0.1017,0.1686,0.1628,0.1666,0.1808,0.1638,0,0,0,0,0]},{"header":{"parameterUnit":"m.s-1","parameterCategory":2,"la1":30.2991,"la2":30.254,"lo1":-89.0895,"lo2":-89.0444,"dy":0.0017,"dx":0.0017,"nx":28,"ny":28,"refTime":"2023-04-23T21:00:00:Z","depth":"2","parameterNumber":3,"parameterNumberName":"V-component_of_CURRENTS"},"data":[0,0,0,0,0,0,0,0,0,0,0,0,0,0,0,0,0,0,0,0,0,0,0,0,0,0,0,0,0,0,0,0,0,0,0,0,0,0,0,0,0,0,0,0,0,0,0,0,0,0,0,0,0,0,0,0,0,0,-0.0283,-0.0282,0,-0.0304,-0.0306,-0.0307,-0.0329,-0.0329,-0.0328,-0.0327,-0.0375,-0.0377,-0.0379,0,0,0,0,0,0,0,0,0,0,0,0,0,-0.0275,-0.0276,-0.0283,-0.0282,-0.0282,-0.0304,-0.0306,-0.0307,-0.0329,-0.0329,-0.0328,-0.0327,-0.0374,-0.0376,-0.0379,0,0,0,0,0,0,0,0,0,0,0,0,0,-0.0297,-0.0276,-0.0283,-0.0287,-0.0286,-0.0304,-0.0306,-0.0307,-0.033,-0.0329,-0.0327,-0.0326,-0.0373,-0.0376,-0.0379,-0.0421,0,0,-0.0388,-0.0389,0,0,0,0,0,0,0,0,-0.0296,-0.0299,-0.0287,-0.0286,-0.0286,-0.0302,-0.0319,-0.0343,-0.033,-0.0326,-0.0327,-0.0326,-0.0346,-0.0351,-0.0375,-0.0423,-0.0425,-0.0388,-0.039,-0.0392,-0.0392,0,0,0,0,0,0,0,-0.0294,-0.0298,-0.0304,-0.0286,-0.0285,-0.029,-0.0293,-0.0325,-0.0352,-0.0326,-0.0325,-0.0308,-0.0347,-0.0372,-0.0376,-0.0426,-0.0388,-0.0391,-0.0393,-0.0394,-0.0405,-0.0404,0,0,0,0,0,0,-0.0268,-0.0297,-0.0303,-0.0303,-0.0274,-0.029,-0.0295,-0.0308,-0.0351,-0.0353,-0.0309,-0.0309,-0.0367,-0.0372,-0.0377,-0.0398,-0.0392,-0.0394,-0.0396,-0.0407,-0.0405,-0.0403,0,0,0,0,0,0,-0.0269,-0.027,-0.0302,-0.0289,-0.0292,-0.029,-0.0306,-0.0309,-0.0367,-0.0336,-0.034,-0.0367,-0.0366,-0.0373,-0.0391,-0.0401,-0.0396,-0.0398,-0.0408,-0.0406,-0.0404,-0.0459,0,0,0,0,0,0,-0.0269,-0.0271,-0.0284,-0.0288,-0.0291,-0.0325,-0.0306,-0.031,-0.035,-0.0352,-0.0386,-0.0387,-0.0366,-0.0387,-0.0394,-0.0405,-0.0401,-0.041,-0.0407,-0.0405,-0.0459,-0.0459,-0.0459,0,0,0,0,0,-0.0269,-0.0278,-0.0286,-0.0285,-0.0306,-0.0325,-0.033,-0.0331,-0.0355,-0.0384,-0.038,-0.0388,-0.0372,-0.0389,-0.0398,-0.041,-0.0412,-0.0408,-0.0405,-0.0459,-0.0459,-0.0459,0,0,0,0,0,0,-0.0265,-0.028,-0.0288,-0.0299,-0.0317,-0.0324,-0.033,-0.0366,-0.0397,-0.0386,-0.0397,-0.0397,-0.0405,-0.0398,-0.0417,-0.0393,-0.0384,-0.0382,-0.0422,-0.0422,-0.0422,-0.0406,-0.0403,0,0,0,0,0,-0.0273,-0.0292,-0.0306,-0.0312,-0.0322,-0.0349,-0.0363,-0.0368,-0.038,-0.0397,-0.0422,-0.0412,-0.0395,-0.0404,-0.0387,-0.0412,-0.0408,-0.0409,-0.0409,-0.041,-0.0396,-0.0414,-0.0416,-0.0392,-0.0392,-0.0392,0,0,-0.0261,-0.0274,-0.028,-0.0313,-0.0324,-0.0332,-0.0359,-0.0371,-0.0369,-0.0394,-0.0418,-0.0428,-0.0398,-0.0389,-0.0393,-0.0393,-0.0412,-0.0405,-0.0407,-0.0392,-0.0411,-0.0414,-0.0417,-0.039,-0.039,-0.039,0,0,-0.0239,-0.0273,-0.0282,-0.0303,-0.0315,-0.0328,-0.0349,-0.0385,-0.0394,-0.0415,-0.0407,-0.043,-0.0434,-0.0412,-0.0397,-0.0395,-0.0408,-0.0387,-0.0392,-0.0411,-0.0414,-0.0417,-0.0419,-0.0422,-0.0392,-0.0393,-0.0393,0,-0.0225,-0.0243,-0.0284,-0.0295,-0.0288,-0.0337,-0.0331,-0.0351,-0.0388,-0.0386,-0.0407,-0.0422,-0.0431,-0.0408,-0.0395,-0.0401,-0.0405,-0.0409,-0.0417,-0.0419,-0.0421,-0.0422,-0.0425,-0.0395,-0.0395,-0.0394,-0.0394,0,-0.0206,-0.0225,-0.0228,-0.0257,-0.0265,-0.0269,-0.0279,-0.0313,-0.0342,-0.0352,-0.0365,-0.039,-0.0397,-0.0407,-0.0405,-0.0417,-0.0414,-0.042,-0.0432,-0.0428,-0.0428,-0.043,-0.0398,-0.0397,-0.0397,-0.0396,0,0,-0.0163,-0.0209,-0.021,-0.0225,-0.0243,-0.0255,-0.0239,-0.0244,-0.0247,-0.0296,-0.0304,-0.0316,-0.0368,-0.0353,-0.0384,-0.0414,-0.0456,-0.0431,-0.0431,-0.0458,-0.0491,-0.0415,-0.041,-0.048,-0.048,-0.0481,-0.0488,0,-0.0137,-0.0146,-0.0166,-0.0172,-0.0178,-0.0203,-0.0179,-0.0183,-0.0206,-0.0234,-0.0265,-0.0282,-0.0331,-0.0362,-0.0399,-0.0426,-0.0461,-0.0452,-0.0466,-0.0465,-0.0422,-0.0409,-0.0377,-0.0374,-0.0489,-0.0489,-0.049,0,-0.0108,-0.0123,-0.011,-0.0133,-0.0134,-0.0145,-0.0139,-0.013,-0.0143,-0.0156,-0.02,-0.0233,-0.0278,-0.0335,-0.0394,-0.0389,-0.0443,-0.0477,-0.0479,-0.0385,-0.0392,-0.0391,-0.0372,-0.0492,-0.0492,-0.0492,-0.0491,0,-0.0059,-0.0089,-0.0078,-0.0087,-0.0106,-0.0109,-0.0125,-0.0116,-0.0088,-0.0139,-0.0142,-0.0193,-0.023,-0.0297,-0.036,-0.039,-0.0416,-0.0463,-0.0444,-0.0439,-0.0397,-0.0386,-0.0518,-0.0518,-0.0518,-0.0518,-0.0518,0,-0.0025,-0.003,-0.0077,-0.0083,-0.0063,-0.0091,-0.006,-0.0088,-0.0084,-0.0047,-0.0127,-0.0114,-0.0229,-0.0252,-0.0329,-0.0359,-0.039,-0.0429,-0.0432,-0.041,-0.0402,-0.0488,-0.0485,-0.0518,-0.0518,-0.0518,-0.0518,0,0.0028,0.0001,-0.0002,-0.0036,-0.0043,-0.0038,-0.0026,-0.0003,-0.0025,0.0005,-0.0009,-0.005,-0.0079,-0.0158,-0.0246,-0.0301,-0.035,-0.0363,-0.0313,-0.031,-0.0378,-0.0376,-0.0354,-0.0351,-0.0349,-0.0347,-0.0345,0,0.0052,0.0058,0.004,0.0041,0.0011,0.0019,0.0053,0.0037,0.006,0.0066,0.0083,0.0056,0.0086,0.0014,-0.0097,-0.0182,-0.0261,-0.0228,-0.028,-0.0353,-0.036,-0.0362,-0.0364,-0.0257,-0.0255,-0.0253,-0.0252,0,0.01,0.0099,0.01,0.0112,0.0113,0.0146,0.0148,0.0193,0.0192,0.0243,0.0292,0.0316,0.0228,0.0174,0.0048,-0.0024,-0.0206,-0.0192,-0.0285,-0.0285,-0.0257,-0.0265,-0.0271,-0.0236,-0.0238,-0.0239,-0.024,-0.024,0.0146,0.0165,0.017,0.0184,0.0203,0.0242,0.0276,0.0324,0.042,0.0483,0.0485,0.0524,0.0385,0.0267,0.0137,-0.0041,-0.0061,-0.0145,-0.0153,-0.0163,-0.0132,-0.0099,-0.0042,-0.0043,-0.0043,-0.0043,-0.0044,0,0.0203,0.0211,0.023,0.0253,0.0295,0.0276,0.0334,0.0402,0.0539,0.061,0.0695,0.0625,0.0553,0.0355,0.0123,0.0004,-0.0054,-0.0053,-0.0117,-0.0129,-0.014,-0.0113,-0.0017,-0.0018,-0.0018,-0.0019,0,0,0.0228,0.0263,0.0274,0.0337,0.0345,0.0402,0.0436,0.0564,0.0629,0.0766,0.0791,0.0821,0.0588,0.043,0.0254,0.0102,0.0007,0.0077,0.0076,0.0012,0.0001,-0.0161,-0.0126,0,0,0,0,0]}],[{"header":{"parameterUnit":"m.s-1","parameterCategory":2,"la1":30.2991,"la2":30.254,"lo1":-89.0895,"lo2":-89.0444,"dy":0.0017,"dx":0.0017,"nx":28,"ny":28,"refTime":"2023-04-23T21:00:00:Z","depth":"4","parameterNumber":2,"parameterNumberName":"U-component_of_CURRENTS"},"data":[0,0,0,0,0,0,0,0,0,0,0,0,0,0,0,0,0,0,0,0,0,0,0,0,0,0,0,0,0,0,0,0,0,0,0,0,0,0,0,0,0,0,0,0,0,0,0,0,0,0,0,0,0,0,0,0,0,0,0.0832,0.0832,0,0.0853,0.0854,0.0854,0.0906,0.0907,0.0908,0.0909,0.0947,0.0947,0.0947,0,0,0,0,0,0,0,0,0,0,0,0,0,0.0849,0.0848,0.0832,0.0832,0.0832,0.0853,0.0854,0.0854,0.0906,0.0907,0.0908,0.091,0.0947,0.0947,0.0947,0,0,0,0,0,0,0,0,0,0,0,0,0,0.0853,0.0848,0.0831,0.0861,0.0864,0.0853,0.0854,0.0854,0.0905,0.0907,0.0909,0.091,0.0947,0.0947,0.0947,0.0913,0,0,0.0947,0.0947,0,0,0,0,0,0,0,0,0.0852,0.0852,0.0856,0.0859,0.0862,0.0879,0.0874,0.0875,0.0905,0.0889,0.0909,0.0911,0.0925,0.0926,0.0926,0.0915,0.0917,0.0947,0.0947,0.0947,0.0947,0,0,0,0,0,0,0,0.0852,0.0851,0.084,0.0856,0.086,0.0878,0.088,0.0874,0.0897,0.0891,0.0895,0.0897,0.0927,0.0926,0.0928,0.0917,0.0947,0.0947,0.0947,0.0947,0.0986,0.0987,0,0,0,0,0,0,0.0847,0.0851,0.0839,0.0841,0.0861,0.0876,0.0878,0.0872,0.0897,0.0903,0.0895,0.0899,0.0925,0.0928,0.0929,0.0983,0.0947,0.0947,0.0947,0.0985,0.0986,0.0987,0,0,0,0,0,0,0.0847,0.0845,0.0838,0.0847,0.0848,0.0874,0.0866,0.0871,0.0892,0.0901,0.0907,0.0914,0.0927,0.0929,0.0953,0.0981,0.0947,0.0947,0.0983,0.0985,0.0987,0.1031,0,0,0,0,0,0,0.0847,0.0845,0.0857,0.0846,0.0847,0.0846,0.0864,0.087,0.089,0.0896,0.0918,0.0922,0.0928,0.0954,0.0953,0.0981,0.0947,0.0982,0.0984,0.0986,0.1028,0.1034,0.1039,0,0,0,0,0,0.0847,0.0849,0.0857,0.0857,0.0856,0.0847,0.0849,0.0873,0.0889,0.0899,0.0923,0.0923,0.0967,0.0954,0.0954,0.0982,0.0981,0.0984,0.0986,0.1026,0.1033,0.1039,0,0,0,0,0,0,0.0863,0.0854,0.0863,0.0863,0.0863,0.0856,0.0869,0.0878,0.0902,0.0919,0.0927,0.0933,0.0967,0.0963,0.0949,0.1,0.0976,0.0979,0.1007,0.1014,0.1019,0.1025,0.0947,0,0,0,0,0,0.0869,0.0872,0.0862,0.0866,0.0863,0.0868,0.0874,0.0888,0.0898,0.0912,0.093,0.0952,0.097,0.0984,0.0995,0.1013,0.1015,0.1034,0.1039,0.1044,0.1049,0.1074,0.1083,0.0995,0.0995,0.0995,0,0,0.0878,0.0874,0.0878,0.0871,0.0872,0.0876,0.0876,0.0887,0.0912,0.091,0.0958,0.0968,0.0978,0.101,0.1025,0.1015,0.107,0.1047,0.105,0.1053,0.1078,0.1086,0.1094,0.0997,0.0996,0.0996,0,0,0.0888,0.0888,0.0894,0.0892,0.0897,0.0896,0.0901,0.0907,0.0936,0.0971,0.0982,0.1009,0.1037,0.1051,0.106,0.1096,0.1095,0.1105,0.1139,0.1164,0.1172,0.1178,0.1194,0.1201,0.111,0.1111,0.1111,0,0.0907,0.0901,0.0896,0.0898,0.0902,0.0906,0.0913,0.0935,0.096,0.0981,0.1001,0.1048,0.106,0.1087,0.1115,0.1109,0.1121,0.1114,0.1172,0.1178,0.1184,0.1198,0.1206,0.1113,0.1113,0.1112,0.1112,0,0.0909,0.0917,0.0915,0.0921,0.0929,0.093,0.0949,0.0977,0.1013,0.1035,0.1085,0.1105,0.1142,0.1144,0.1149,0.1191,0.1185,0.1173,0.1155,0.1195,0.1208,0.1215,0.1116,0.1116,0.1115,0.1114,0,0,0.0912,0.0918,0.0922,0.0923,0.0939,0.0934,0.0984,0.101,0.1042,0.1091,0.1136,0.1177,0.12,0.1212,0.1214,0.123,0.1289,0.1231,0.1231,0.1245,0.1347,0.1261,0.1261,0.1292,0.1293,0.1294,0.1339,0,0.0916,0.0923,0.0932,0.0942,0.0938,0.0961,0.0998,0.1035,0.1084,0.1131,0.1167,0.121,0.1224,0.1249,0.1278,0.1286,0.1311,0.1278,0.1306,0.1306,0.1225,0.1267,0.1299,0.1344,0.1346,0.1347,0.1348,0,0.0912,0.0914,0.093,0.0938,0.094,0.0959,0.1004,0.1043,0.1113,0.1163,0.1225,0.1253,0.131,0.1307,0.1369,0.1353,0.1368,0.136,0.1362,0.1271,0.1234,0.1295,0.1361,0.136,0.1359,0.1358,0.1357,0,0.0893,0.0906,0.0918,0.0921,0.0942,0.0966,0.099,0.1056,0.11,0.119,0.1237,0.1302,0.1354,0.1385,0.1419,0.1406,0.146,0.1438,0.1367,0.1361,0.1404,0.1397,0.1475,0.1475,0.1474,0.1474,0.1474,0,0.087,0.0876,0.0911,0.0908,0.0929,0.0956,0.1003,0.1048,0.1127,0.1168,0.126,0.1299,0.138,0.1423,0.1437,0.1436,0.1494,0.1381,0.137,0.1422,0.1416,0.1409,0.1401,0.1476,0.1476,0.1475,0.1475,0,0.0837,0.0863,0.0868,0.09,0.092,0.0937,0.1008,0.1036,0.1128,0.1191,0.1225,0.1328,0.1382,0.1433,0.1475,0.1454,0.1449,0.1428,0.1488,0.1478,0.1328,0.1322,0.1355,0.1352,0.135,0.1348,0.1347,0,0.0816,0.0822,0.0863,0.0872,0.0888,0.093,0.0961,0.1045,0.1079,0.1182,0.1199,0.1285,0.1341,0.1342,0.1406,0.1429,0.1409,0.1407,0.136,0.1331,0.1318,0.1315,0.1312,0.1343,0.1343,0.1342,0.1342,0,0.0774,0.0804,0.081,0.0834,0.0861,0.0877,0.0923,0.0944,0.1028,0.1129,0.1144,0.1173,0.123,0.1275,0.1314,0.132,0.1409,0.1384,0.1388,0.1344,0.1318,0.1306,0.1305,0.1334,0.1335,0.1336,0.1336,0,0.0755,0.0751,0.0772,0.0777,0.0804,0.0786,0.0824,0.0849,0.0897,0.1013,0.1011,0.1101,0.1194,0.1218,0.1244,0.1261,0.1239,0.1197,0.121,0.1219,0.1158,0.1104,0.1052,0,0,0,0,0,0.0729,0.071,0.0708,0.0699,0.0713,0.0727,0.0775,0.0817,0.0912,0.0892,0.0948,0.0986,0.1034,0.1091,0.1083,0.1194,0.1247,0.118,0.1204,0.1292,0.1301,0.1243,0,0,0,0,0,0,0.071,0.071,0.0687,0.0624,0.0606,0.0612,0.0635,0.0695,0.0694,0.08,0.0835,0.093,0.1,0.1029,0.1065,0.1085,0.108,0.1253,0.1251,0.1287,0.1295,0.1302,0.1246,0,0,0,0,0]},{"header":{"parameterUnit":"m.s-1","parameterCategory":2,"la1":30.2991,"la2":30.254,"lo1":-89.0895,"lo2":-89.0444,"dy":0.0017,"dx":0.0017,"nx":28,"ny":28,"refTime":"2023-04-23T21:00:00:Z","depth":"4","parameterNumber":3,"parameterNumberName":"V-component_of_CURRENTS"},"data":[0,0,0,0,0,0,0,0,0,0,0,0,0,0,0,0,0,0,0,0,0,0,0,0,0,0,0,0,0,0,0,0,0,0,0,0,0,0,0,0,0,0,0,0,0,0,0,0,0,0,0,0,0,0,0,0,0,0,0.0212,0.0212,0,0.0214,0.0214,0.0214,0.0193,0.0192,0.0192,0.0191,0.0189,0.0189,0.019,0,0,0,0,0,0,0,0,0,0,0,0,0,0.0167,0.0168,0.0212,0.0212,0.0213,0.0214,0.0214,0.0214,0.0193,0.0192,0.0192,0.0191,0.0189,0.0189,0.019,0,0,0,0,0,0,0,0,0,0,0,0,0,0.0178,0.0168,0.0212,0.0203,0.0202,0.0214,0.0214,0.0214,0.0193,0.0192,0.0191,0.0191,0.0189,0.0189,0.019,0.0207,0,0,0.0191,0.0192,0,0,0,0,0,0,0,0,0.0178,0.018,0.0204,0.0204,0.0203,0.0204,0.0197,0.0212,0.0193,0.0195,0.0191,0.019,0.0195,0.0195,0.0195,0.0207,0.0207,0.0191,0.0192,0.0192,0.0192,0,0,0,0,0,0,0,0.0177,0.0179,0.0211,0.0205,0.0204,0.0191,0.0192,0.02,0.0198,0.0195,0.0194,0.0196,0.0194,0.0194,0.0195,0.0207,0.0191,0.0192,0.0192,0.0193,0.0218,0.0218,0,0,0,0,0,0,0.0182,0.0179,0.0211,0.0212,0.019,0.0193,0.0194,0.0203,0.0198,0.0197,0.0197,0.0195,0.0194,0.0194,0.0195,0.0225,0.0192,0.0193,0.0193,0.0217,0.0218,0.0218,0,0,0,0,0,0,0.0181,0.0185,0.0211,0.0196,0.0198,0.0195,0.0205,0.0203,0.0209,0.0199,0.0198,0.0205,0.0193,0.0194,0.0205,0.0224,0.0193,0.0193,0.0217,0.0218,0.0218,0.0278,0,0,0,0,0,0,0.018,0.0185,0.0192,0.0197,0.02,0.0225,0.0206,0.0204,0.0212,0.021,0.0206,0.0204,0.0193,0.0204,0.0206,0.0224,0.0194,0.0217,0.0217,0.0218,0.0276,0.0281,0.0285,0,0,0,0,0,0.0178,0.0191,0.0192,0.0196,0.021,0.0226,0.0226,0.0219,0.0213,0.0221,0.0216,0.0205,0.0209,0.0206,0.0207,0.0226,0.0216,0.0217,0.0218,0.0274,0.028,0.0285,0,0,0,0,0,0,0.0176,0.0191,0.0192,0.0209,0.022,0.0223,0.0227,0.0228,0.0231,0.0229,0.0217,0.0216,0.0232,0.0219,0.0215,0.0232,0.0208,0.0209,0.025,0.0256,0.026,0.0266,0.0194,0,0,0,0,0,0.0181,0.0193,0.0206,0.022,0.0227,0.023,0.0235,0.0237,0.0241,0.0241,0.0235,0.023,0.0236,0.0238,0.0237,0.0253,0.0229,0.0261,0.0266,0.027,0.0274,0.0262,0.0266,0.0221,0.0221,0.0221,0,0,0.0184,0.0193,0.02,0.0221,0.0225,0.0241,0.0231,0.0247,0.0259,0.0242,0.0251,0.0251,0.0244,0.0258,0.0264,0.025,0.0267,0.0271,0.0275,0.0276,0.0263,0.0268,0.0272,0.0221,0.0221,0.0221,0,0,0.0194,0.0206,0.0218,0.0231,0.0247,0.0254,0.0263,0.0273,0.0274,0.0286,0.0281,0.0295,0.0288,0.0298,0.0299,0.033,0.0294,0.0322,0.0352,0.0341,0.0344,0.0348,0.031,0.0309,0.0322,0.0322,0.0322,0,0.0197,0.022,0.0224,0.024,0.0258,0.0263,0.0288,0.029,0.0302,0.0312,0.0291,0.0309,0.0308,0.0344,0.035,0.0344,0.0315,0.0335,0.0348,0.035,0.0353,0.0313,0.0312,0.0325,0.0325,0.0324,0.0324,0,0.0217,0.0237,0.0247,0.027,0.0288,0.0314,0.0325,0.034,0.034,0.0341,0.0367,0.0366,0.0377,0.038,0.0373,0.04,0.0365,0.0359,0.0337,0.0361,0.0318,0.0315,0.0329,0.0328,0.0327,0.0327,0,0,0.023,0.0257,0.0263,0.0289,0.0314,0.034,0.0359,0.039,0.0415,0.0407,0.0431,0.0446,0.0444,0.0446,0.0448,0.0441,0.0433,0.0405,0.0403,0.0373,0.0381,0.0349,0.0342,0.0423,0.0424,0.0424,0.0339,0,0.0252,0.0288,0.0299,0.035,0.0378,0.0398,0.0424,0.0449,0.0452,0.0469,0.0469,0.0485,0.0468,0.0482,0.0474,0.045,0.043,0.0454,0.0357,0.0354,0.0328,0.0341,0.0425,0.0337,0.0337,0.0336,0.0336,0,0.0275,0.0302,0.0347,0.041,0.0427,0.0458,0.0519,0.0546,0.056,0.0561,0.0567,0.0546,0.0553,0.0524,0.0482,0.0493,0.044,0.0407,0.0403,0.0353,0.0318,0.031,0.0331,0.0331,0.0331,0.0332,0.0332,0,0.0293,0.0345,0.0388,0.0408,0.0467,0.0503,0.0544,0.0575,0.0609,0.0618,0.0626,0.0612,0.0608,0.055,0.0474,0.0473,0.0402,0.0393,0.031,0.0305,0.0332,0.033,0.035,0.035,0.0351,0.0351,0.0351,0,0.0319,0.0362,0.0404,0.0433,0.0506,0.054,0.0613,0.0643,0.0682,0.0715,0.0681,0.0683,0.0613,0.0554,0.048,0.0384,0.0402,0.0314,0.0289,0.0356,0.0358,0.0329,0.0328,0.0348,0.0348,0.0349,0.035,0,0.0333,0.0356,0.0416,0.0484,0.0512,0.0568,0.066,0.071,0.074,0.0777,0.0777,0.0735,0.0654,0.0566,0.0463,0.0396,0.0307,0.0263,0.0325,0.0304,0.0209,0.0212,0.0162,0.016,0.0159,0.0158,0.0157,0,0.0346,0.0371,0.0445,0.0489,0.0525,0.0608,0.0667,0.0731,0.0772,0.0799,0.0809,0.0743,0.0693,0.052,0.043,0.0277,0.0257,0.02,0.0222,0.0213,0.0193,0.0198,0.0202,0.0154,0.0154,0.0154,0.0153,0,0.0375,0.0393,0.0436,0.0512,0.0581,0.066,0.074,0.0769,0.0831,0.0852,0.0815,0.0725,0.0628,0.0497,0.0379,0.0273,0.0238,0.0185,0.0188,0.0208,0.0203,0.0186,0.0192,0.0148,0.0149,0.015,0.015,0,0.0396,0.0421,0.0468,0.0538,0.0621,0.0692,0.0734,0.0777,0.0818,0.0835,0.0811,0.0716,0.0663,0.0493,0.0386,0.0279,0.0251,0.0214,0.0214,0.0219,0.0265,0.027,0.0215,0,0,0,0,0,0.0415,0.0439,0.05,0.0573,0.0653,0.0703,0.0778,0.0811,0.0846,0.0819,0.0819,0.0721,0.0556,0.0487,0.0371,0.0361,0.0237,0.0221,0.0196,0.0121,0.0127,0.0171,0,0,0,0,0,0,0.0429,0.0476,0.0493,0.0585,0.0644,0.0735,0.0783,0.0807,0.0787,0.0797,0.0707,0.068,0.0519,0.0618,0.0364,0.0334,0.0299,0.0153,0.015,0.0118,0.0123,0.0128,0.0175,0,0,0,0,0]}]]